{"data":{"norad_id":57760,"intl_designator":"2023-133D","name":"BB3","alt_names":[],"object_type":"PAYLOAD","status":"ACTIVE","operator":null,"country":"US","launch_date":"2023-09-02","launch_site_code":"AFWTR","launch_vehicle":null,"mission":null,"orbit_class":"UNKNOWN","rcs_meters":null,"size_class":null,"mass_kg":null,"dimensions":null,"purposes":[],"wikipedia_slug":null,"has_3d_model":false,"image_url":null,"decayed_at":null,"tle_current":{"epoch":"2026-05-24T23:00:06.485760Z","epoch_age_seconds":92720,"freshness":"FRESH","line1":"1 57760U 23133D   26144.95840840  .00000810  00000+0  17646-3 0  9997","line2":"2 57760  80.9991  15.0374 0137323  15.8433 344.6989 14.51344251138685","mean_motion":14.51344251,"eccentricity":0.0137323,"inclination_deg":80.9991,"raan_deg":15.0374,"arg_perigee_deg":15.8433,"mean_anomaly_deg":344.6989,"bstar":0.00017646,"rev_number":13868,"period_min":99.218362494482,"perigee_km":623.77035827151,"apogee_km":818.75249631779,"semimajor_km":7099.3984272947,"source":"CELESTRAK","updated_at":"2026-05-25T13:38:00.235471Z"}}}